Change the Weather History Date:

Tuesday, January 17, 2012

  Actual Average Record
Temperature  
Mean Temperature 26 °F 24 °F  
Max Temperature 31 °F 31 °F 50 °F (1919)
Min Temperature 20 °F 17 °F -18 °F (1984)
Degree Days  
Heating Degree Days 39 41  
Month to date heating degree days 633 716  
Since 1 July heating degree days 3860 4230  
Cooling Degree Days 0 0  
Month to date cooling degree days 0 0  
Year to date cooling degree days 0 0  
Moisture  
Dew Point 18 °F    
Average Humidity 67    
Maximum Humidity 81    
Minimum Humidity 53    
Precipitation  
Precipitation 0.02 in 0.04 in 0.42 in (1954)
Month to date precipitation 0.28 0.82  
Year to date precipitation 0.28 0.82  
Snow  
Snow 0.30 in - - ()
Month to date snowfall 4.5  
Year to date snowfall 4.5  
Since 1 July snowfall 10.8  
Snow Depth 2.00 in    
Sea Level Pressure  
Sea Level Pressure 29.68 in    
Wind  
Wind Speed 12 mph (South)    
Max Wind Speed 24 mph    
Max Gust Speed 30 mph    
Visibility 7 miles    
Events Snow    
T = Trace of Precipitation, MM = Missing Value Source: NWS Daily Summary

Daily Weather History Graph

Daily Weather History Graph

Search for Another Location

Airport or City:

Trip Planner

Search our weather history database for the weather conditions in past years. The results will help you decide how hot, cold, wet, or windy it might be!

Date:

Astronomy

Jan. 17, 2012 Rise Set
Actual Time 8:21 AM MST 5:12 PM MST
Civil Twilight 7:46 AM MST 5:47 PM MST
Nautical Twilight 7:08 AM MST 6:26 PM MST
Astronomical Twilight 6:30 AM MST 7:03 PM MST
Moon 2:43 AM MST (1/17) 12:09 PM MST (1/17)
Length of Visible Light 10h 01m
Length of Day
8h 50m
Waning Crescent, 34% of the Moon is Illuminated
Jan 17
Waning Crescent
Jan 23
New
Jan 30
First Quarter
Feb 7
Full
Feb 14
Last Quarter

Hourly Weather History & Observations

Time (MST) Temp. Windchill Dew Point Humidity Pressure Visibility Wind Dir Wind Speed Gust Speed Precip Events Conditions
12:55 AM 21.9 °F 12.5 °F 12.9 °F 68% 30.01 in 10.0 mi South 8.1 mph - N/A   Overcast
1:55 AM 21.0 °F 14.6 °F 12.0 °F 68% 29.99 in 10.0 mi South 4.6 mph - N/A   Clear
2:55 AM 21.0 °F 12.4 °F 12.9 °F 71% 29.97 in 10.0 mi South 6.9 mph - N/A   Overcast
3:55 AM 24.1 °F 12.5 °F 12.9 °F 62% 29.95 in 10.0 mi SSE 12.7 mph - N/A   Overcast
4:55 AM 24.1 °F 12.5 °F 12.0 °F 60% 29.92 in 10.0 mi South 12.7 mph - N/A   Overcast
5:55 AM 24.1 °F 12.0 °F 12.9 °F 62% 29.90 in 10.0 mi South 13.8 mph - N/A   Overcast
6:55 AM 24.1 °F 12.5 °F 12.9 °F 62% 29.88 in 10.0 mi SSE 12.7 mph 20.7 mph N/A   Overcast
7:55 AM 24.8 °F 13.4 °F 12.2 °F 59% 29.74 in 10.0 mi South 12.7 mph 21.9 mph N/A   Overcast
8:55 AM 25.0 °F 13.6 °F 14.0 °F 63% 29.83 in 10.0 mi SSE 12.7 mph - N/A   Overcast
9:55 AM 26.1 °F 17.6 °F 14.0 °F 60% 29.82 in 10.0 mi South 8.1 mph - N/A   Overcast
10:55 AM 28.0 °F 18.1 °F 14.0 °F 56% 29.80 in 10.0 mi SSW 11.5 mph 18.4 mph N/A   Scattered Clouds
11:55 AM 28.9 °F 18.2 °F 15.1 °F 56% 29.76 in 10.0 mi SSW 13.8 mph 23.0 mph N/A   Clear
12:55 PM 30.0 °F 16.9 °F 15.1 °F 54% 29.72 in 10.0 mi SSW 21.9 mph 29.9 mph N/A   Mostly Cloudy
1:55 PM 30.0 °F 17.9 °F 17.1 °F 59% 29.70 in 10.0 mi SSW 18.4 mph 27.6 mph N/A   Partly Cloudy
2:55 PM 28.0 °F 18.1 °F 21.0 °F 75% 29.69 in 6.0 mi South 11.5 mph - N/A   Haze
3:05 PM 28.4 °F 18.5 °F 19.4 °F 69% 29.59 in 10.0 mi South 11.5 mph - N/A   Overcast
3:55 PM 28.9 °F 17.7 °F 16.0 °F 58% 29.66 in 10.0 mi SSW 15.0 mph 21.9 mph N/A   Clear
4:55 PM 27.0 °F 14.3 °F 19.9 °F 75% 29.65 in 10.0 mi SSW 17.3 mph 26.5 mph N/A   Mostly Cloudy
5:15 PM 26.6 °F 15.2 °F 21.2 °F 80% 29.55 in 2.0 mi South 13.8 mph 23.0 mph N/A Snow Light Snow
5:20 PM 26.6 °F 16.2 °F 21.2 °F 80% 29.55 in 3.0 mi South 11.5 mph 23.0 mph 0.00 in Snow Light Snow
5:29 PM 26.6 °F 15.7 °F 19.4 °F 74% 29.55 in 9.0 mi South 12.7 mph - 0.00 in   Overcast
5:46 PM 26.6 °F 14.3 °F 21.2 °F 80% 29.55 in 2.5 mi South 16.1 mph 24.2 mph 0.00 in Snow Light Snow
5:55 PM 26.1 °F 15.6 °F 21.9 °F 84% 29.64 in 2.5 mi South 11.5 mph - 0.00 in Snow Light Snow
6:04 PM 24.8 °F 14.0 °F 21.2 °F 86% 29.54 in 4.0 mi South 11.5 mph - 0.00 in Snow Light Snow
6:21 PM 26.6 °F 14.3 °F 21.2 °F 80% 29.54 in 10.0 mi SSW 16.1 mph 21.9 mph 0.00 in   Mostly Cloudy
6:46 PM 26.6 °F 15.2 °F 23.0 °F 86% 29.54 in 1.8 mi South 13.8 mph - 0.00 in Snow Light Snow
6:55 PM 24.8 °F 12.4 °F 23.0 °F 93% 29.54 in 2.0 mi South 15.0 mph - N/A Snow Light Snow
7:00 PM 24.8 °F 11.5 °F 23.0 °F 93% 29.54 in 1.8 mi South 17.3 mph - 0.00 in Snow Light Snow
7:04 PM 24.8 °F 13.4 °F 23.0 °F 93% 29.54 in 1.8 mi South 12.7 mph - 0.00 in Snow Light Snow
7:07 PM 24.8 °F 13.4 °F 23.0 °F 93% 29.53 in 2.0 mi South 12.7 mph - 0.00 in Snow Light Snow
7:12 PM 24.8 °F 12.9 °F 23.0 °F 93% 29.53 in 3.0 mi South 13.8 mph - N/A Snow Light Snow
7:28 PM 24.8 °F 11.9 °F 21.2 °F 86% 29.53 in 10.0 mi SSE 16.1 mph 25.3 mph 0.00 in   Mostly Cloudy
7:55 PM 24.1 °F 10.6 °F 21.0 °F 88% 29.63 in 10.0 mi SSE 17.3 mph - 0.00 in   Clear
8:55 PM 26.1 °F 16.2 °F 14.0 °F 60% 29.64 in 10.0 mi WSW 10.4 mph - N/A   Mostly Cloudy
9:55 PM 24.1 °F - 19.9 °F 84% 29.68 in 10.0 mi Calm Calm - 0.00 in   Scattered Clouds
10:40 PM 24.8 °F - 21.2 °F 86% 29.61 in 2.5 mi Calm Calm - 0.00 in Snow Light Snow
10:48 PM 23.0 °F 17.0 °F 21.2 °F 93% 29.62 in 6.0 mi Variable 4.6 mph - 0.00 in Snow Light Snow
10:55 PM 24.8 °F 12.9 °F 19.4 °F 80% 29.62 in 1.8 mi WNW 13.8 mph 21.9 mph N/A Snow Light Snow
11:05 PM 23.0 °F - 19.4 °F 86% 29.63 in 1.2 mi Calm Calm - 0.01 in Snow Light Snow
11:14 PM 23.0 °F 15.8 °F 17.6 °F 80% 29.63 in 2.5 mi Variable 5.8 mph - 0.01 in Snow Light Snow
11:18 PM 23.0 °F 13.9 °F 17.6 °F 80% 29.63 in 5.0 mi NNW 8.1 mph - 0.01 in Snow Light Snow
11:51 PM 21.2 °F 13.6 °F 17.6 °F 86% 29.65 in 2.0 mi West 5.8 mph - 0.01 in Snow Light Snow
11:55 PM 21.9 °F 11.0 °F 18.0 °F 85% 29.75 in 1.2 mi West 10.4 mph - 0.02 in Snow Light Snow